Regional Weather Roundup
Issued by NWS Albany, NY

Home | Current Version | Previous Version | Text Only | Print | Product List | Glossary On
Versions: 1 2 3 4 5 6 7 8 9 10 11 12 13 14 15 16 17 18 19 20 21 22 23 24 25 26 27
000
ASUS41 KALY 250410
RWRALY

NEW YORK STATE HOURLY WEATHER ROUNDUP
NATIONAL WEATHER SERVICE ALBANY NY
1200 AM EDT THU MAY 25 2017

NOTE: "FAIR" INDICATES FEW OR NO CLOUDS BELOW 12,000 FEET WITH NO
SIGNIFICANT WEATHER AND/OR NO OBSTRUCTIONS TO VISIBILITY.

NYZ032-033-038>043-046>054-057>066-NYZ062>081-082-084-250500-
EAST


CITY           SKY/WX    TMP DP  RH WIND       PRES   REMARKS
ALBANY         CLOUDY    64  48  56 SE3       29.81R
GLENS FALLS    NOT AVBL
POUGHKEEPSIE   CLOUDY    58  49  72 E5        29.82R
NEWBURGH       CLEAR     59  52  77 SE12      29.84R
MONTGOMERY     CLOUDY    58  49  72 E3        29.82S
WHITE PLAINS   MOCLDY    56  49  77 SE6       29.82S
ISLIP          CLOUDY    56  52  86 E10       29.82F
NEW YORK CITY  CLOUDY    60  51  72 E9        29.82R
CENTRAL PARK   CLOUDY    59  51  75 VRB3      29.84F
$$

NYZ005>009-017-018-044>046-055-056-250500-
CENTRAL


CITY           SKY/WX    TMP DP  RH WIND       PRES   REMARKS
FULTON         CLOUDY    66  50  56 VRB5      29.72F
SYRACUSE       CLOUDY    64  50  60 SE7       29.72F
ROME           MOCLDY    62  50  64 E7        29.77R
ELMIRA         CLOUDY    64  49  57 E9        29.71S
BINGHAMTON     CLOUDY    57  46  66 SE10      29.75F
MONTICELLO     MOCLDY    55  48  76 SE8       29.82F
$$

NYZ026>034-041>043-087-250500-
NORTH


CITY           SKY/WX    TMP DP  RH WIND       PRES   REMARKS
WATERTOWN      PTCLDY    62  51  67 E5        29.73R
FORT DRUM      NOT AVBL
OGDENSBURG     FAIR      61  54  77 CALM      29.75R
MASSENA        CLOUDY    65  54  67 E7        29.78R
SARANAC LAKE   CLOUDY    48  47  96 CALM      29.82R
PLATTSBURGH    CLOUDY    55  52  89 CALM      29.80R
$$

NYZ001>004-010>016-019>021-085-250500-
WEST


CITY           SKY/WX    TMP DP  RH WIND       PRES   REMARKS
NIAGARA FALLS  LGT RAIN  70  47  43 SE21G28   29.61S
BUFFALO        LGT RAIN  66  49  54 SE14      29.62F
DUNKIRK        LGT RAIN  62  53  72 E9        29.59F
JAMESTOWN      CLOUDY    55  50  82 SE9       29.61F
WELLSVILLE     LGT RAIN  59  49  69 SE10G17   29.69F
ROCHESTER      CLOUDY    68  49  50 SE9       29.66F
PENN YAN       CLOUDY    64  46  52 VRB5      29.71F
$$

             KEY
       WCI = WIND CHILL INDEX
       VSB = VISIBILITY
       HX  = HEAT INDEX
$$




USA.gov is the U.S. government's official web portal to all federal, state and local government web resources and services.